Regional Weather Roundup
Issued by NWS

Home | Current Version | Previous Version | Text Only | Print | Product List | Glossary Off
Versions: 1 2 3 4 5 6 7 8 9 10 11 12 13 14 15 16 17 18 19 20 21 22 23 24 25 26 27 28 29 30 31 32 33 34 35 36 37 38 39 40 41 42 43 44 45 46 47 48 49 50

000
ASUS43 KMKX 041821
RWRWI

WISCONSIN REGIONAL WEATHER ROUNDUP
NATIONAL WEATHER SERVICE MILWAUKEE/SULLIVAN WI
100 PM CDT WED MAY 04 2016

NOTE: "FAIR" INDICATES FEW OR NO CLOUDS BELOW 12,000 FEET WITH NO
SIGNIFICANT WEATHER AND/OR OBSTRUCTIONS TO VISIBILITY.

WIZ001-002-006>008-014>016-023>028-041900-
NORTHWEST WISCONSIN

CITY           SKY/WX    TMP DP  RH WIND       PRES   REMARKS
SUPERIOR ARPT  SUNNY     57  25  29 NE10      29.97R
6HR MIN TEMP:  45; 6HR MAX TEMP:  60;

ASHLAND        SUNNY     52  33  48 NE10G20   29.98S
6HR MIN TEMP:  43; 6HR MAX TEMP:  53;

HAYWARD        SUNNY     56  20  24 N10G22    29.94F
6HR MIN TEMP:  34; 6HR MAX TEMP:  56;

SIREN          SUNNY     60  22  22 N14G24    29.95F
6HR MIN TEMP:  39; 6HR MAX TEMP:  60;

CUMBERLAND     SUNNY     57  27  30 NW14G23   29.93F
RICE LAKE      SUNNY     59  25  27 NW12G20   29.94F
6HR MIN TEMP:  43; 6HR MAX TEMP:  59;

CHETEK         SUNNY     58  31  36 N8G18     29.92F
6HR MIN TEMP:  43; 6HR MAX TEMP:  58;

LADYSMITH      SUNNY     57  25  29 NW16G25   29.93S
6HR MIN TEMP:  41; 6HR MAX TEMP:  57;

EAU CLAIRE     MOSUNNY   59  29  31 NW18G31   29.92F
6HR MIN TEMP:  44; 6HR MAX TEMP:  60;

MENOMONIE      SUNNY     61  31  32 NW13G24   29.93S
6HR MIN TEMP:  46; 6HR MAX TEMP:  61;

NEW RICHMOND   SUNNY     61  29  29 N14G22    29.95F
6HR MIN TEMP:  44; 6HR MAX TEMP:  61;

OSCEOLA        SUNNY     61  31  32 N13G20    29.98F
6HR MIN TEMP:  43; 6HR MAX TEMP:  61;

$$

WIZ003>005-009-010-017-018-041900-
NORTH CENTRAL WISCONSIN

CITY           SKY/WX    TMP DP  RH WIND       PRES   REMARKS
MANITOWISH WTR CLOUDY    45  32  61 N13G18    29.93R
6HR MIN TEMP:  39; 6HR MAX TEMP:  47;

ARBOR VITAE    MOSUNNY   46  33  59 N14G24    29.91R
6HR MIN TEMP:  39; 6HR MAX TEMP:  52;

WOODRUFF       MOSUNNY   46  33  59 N14G24    29.91R
6HR MIN TEMP:  39; 6HR MAX TEMP:  52;

RHINELANDER    MOSUNNY   48  32  53 N10G22    29.90R
6HR MIN TEMP:  39; 6HR MAX TEMP:  48;

EAGLE RIVER    CLOUDY    42  29  61 N14G22    29.90F
LAND O LAKES   CLOUDY    41  32  69 N15G22    29.92S
6HR MIN TEMP:  38; 6HR MAX TEMP:  42;

PHILLIPS       SUNNY     50  27  40 N13G21    29.91R
6HR MIN TEMP:  39; 6HR MAX TEMP:  52;

TOMAHAWK       SUNNY     52  26  36 N14G22    29.89S
6HR MIN TEMP:  39; 6HR MAX TEMP:  53;

MEDFORD        SUNNY     54  28  36 N13G25    29.87S
6HR MIN TEMP:  39; 6HR MAX TEMP:  54;

MERRILL        MOSUNNY   54  29  38 N14G25    29.87S
$$

WIZ029-030-035-036-043>047-041900-
CENTRAL WISCONSIN

CITY           SKY/WX    TMP DP  RH WIND       PRES   REMARKS
WAUSAU         SUNNY     56  28  34 N14G24    29.84S
6HR MIN TEMP:  42; 6HR MAX TEMP:  57;

MOSINEE        SUNNY     54  28  37 N20G26    29.87S
MARSHFIELD     SUNNY     58  27  30 N22G30    29.86S
6HR MIN TEMP:  41; 6HR MAX TEMP:  58;

STEVENS POINT  MOSUNNY   53  28  37 NW14G30   29.84F
6HR MIN TEMP:  40; 6HR MAX TEMP:  54;

WAUPACA        PTSUNNY   56  33  41 N17G29    29.83S
6HR MIN TEMP:  44; 6HR MAX TEMP:  58;

WAUTOMA        CLOUDY    55  32  41 N15G21    29.83S
6HR MIN TEMP:  43; 6HR MAX TEMP:  56;

WISC RAPIDS    MOSUNNY   59  26  28 N17G29    29.86S
6HR MIN TEMP:  42; 6HR MAX TEMP:  59;

CAMP DOUGLAS   MOSUNNY   59  34  38 NW23G31   29.85F
$$

WIZ011>013-019>022-031-037>040-048>050-041900-
NORTHEAST WISCONSIN

CITY           SKY/WX    TMP DP  RH WIND       PRES   REMARKS
ANTIGO         CLOUDY    47  35  61 N21G26    29.86S
6HR MIN TEMP:  38; 6HR MAX TEMP:  48;

SHAWANO        CLOUDY    54  35  48 N8G20     29.83F
6HR MIN TEMP:  44; 6HR MAX TEMP:  53;

OCONTO         CLOUDY    49  35  59 N16G22    29.82S
6HR MIN TEMP:  43; 6HR MAX TEMP:  49;

STURGEON BAY   CLOUDY    46  34  61 N22       29.84R
6HR MIN TEMP:  41; 6HR MAX TEMP:  46;

GREEN BAY      CLOUDY    50  36  58 N17       29.82S
6HR MIN TEMP:  43; 6HR MAX TEMP:  50;

MANITOWOC      CLOUDY    47  35  63 N22G31    29.80S
6HR MIN TEMP:  44; 6HR MAX TEMP:  47;

APPLETON       PTSUNNY   52  32  46 N22G28    29.81S
CLINTONVILLE   CLOUDY    52  32  46 N17G23    29.83F
OSHKOSH        CLOUDY    51  35  54 N20G29    29.82S
6HR MIN TEMP:  43; 6HR MAX TEMP:  52;

$$

WIZ032>034-041-042-053>061-041900-
SOUTHWEST WISCONSIN

CITY           SKY/WX    TMP DP  RH WIND       PRES   REMARKS
LA CROSSE      MOSUNNY   63  34  33 N17G30    29.89F
6HR MIN TEMP:  46; 6HR MAX TEMP:  63;

SPARTA         MOSUNNY   60  31  34 N21G28    29.88F
6HR MIN TEMP:  42; 6HR MAX TEMP:  60;

VIROQUA        PTSUNNY   55  33  43 NW23G30   29.88S
6HR MIN TEMP:  42; 6HR MAX TEMP:  56;

BOSCOBEL       MOSUNNY   62  32  32 N16G28    29.87F
6HR MIN TEMP:  48; 6HR MAX TEMP:  62;

PRAIRIE DU CHI SUNNY     59  30  33 NW18      29.88F
6HR MIN TEMP:  47; 6HR MAX TEMP:  59;

PLATTEVILLE    MOSUNNY   59  36  42 NW20G25   29.85S
$$

WIZ056-057-062-063-064-067-068-041900-
SOUTH CENTRAL WISCONSIN

CITY           SKY/WX    TMP DP  RH WIND       PRES   REMARKS
REEDSBURG      MOSUNNY   57  32  37 NW17G29   29.84S
6HR MIN TEMP:  43; 6HR MAX TEMP:  58;

BARABOO/DELLS  MOSUNNY   58  29  33 N15G24    29.83F
6HR MIN TEMP:  43; 6HR MAX TEMP:  58;

LONE ROCK      SUNNY     60  31  33 N20G29    29.85F
6HR MIN TEMP:  46; 6HR MAX TEMP:  60;

MINERAL POINT  MOSUNNY   59  30  33 NW20G32   29.84S
MADISON        PTSUNNY   54  35  48 N14G23    29.82S
6HR MIN TEMP:  44; 6HR MAX TEMP:  55;

MIDDLETON      PTSUNNY   57  35  43 N16G25    29.82F
6HR MIN TEMP:  46; 6HR MAX TEMP:  58;

WATERTOWN      PTSUNNY   51  36  56 N10G28    29.81S
6HR MIN TEMP:  42; 6HR MAX TEMP:  53;

MONROE         PTSUNNY   55  36  47 N21G31    29.81S
JANESVILLE     CLOUDY    54  37  54 N18G24    29.80
$$

WIZ051-052-058>065-066-070>072-041900-
SOUTHEAST WISCONSIN

CITY           SKY/WX    TMP DP  RH WIND       PRES   REMARKS
MILWAUKEE      CLOUDY    45  36  70 NE12G21   29.80R
6HR MIN TEMP:  44; 6HR MAX TEMP:  49;

WAUKESHA       CLOUDY    46  34  61 N18G24    29.81R
MILWAUKEE/TIMM CLOUDY    46  34  61 N18G26    29.81R
RACINE         CLOUDY    46  38  73 NE13      29.80S
6HR MIN TEMP:  45; 6HR MAX TEMP:  49;

BURLINGTON     CLOUDY    47  36  65 N20       29.80S
6HR MIN TEMP:  43; 6HR MAX TEMP:  47;

KENOSHA        CLOUDY    48  35  60 N14G24    29.79S
6HR MIN TEMP:  46; 6HR MAX TEMP:  49;

FOND DU LAC    CLOUDY    51  36  56 N20G28    29.82S
6HR MIN TEMP:  44; 6HR MAX TEMP:  51;

SHEBOYGAN      CLOUDY    47  34  60 N16G28    29.80S
6HR MIN TEMP:  43; 6HR MAX TEMP:  48;

WEST BEND      CLOUDY    46  34  61 N15G23    29.80S
JUNEAU         PTSUNNY   50  36  58 NW18      29.82S
6HR MIN TEMP:  41; 6HR MAX TEMP:  51;

$$

LSZ147-162-041900-
LAKE SUPERIOR

STATION/POSITION TIME  TEMP    WIND        PRES    WAVE
                       AIR SEA DIR/SP/G            HT/PER
                 (UTC) (F)     (DEG/KT/KT) (MB)    (FT/S)
W MID LAKE BUOY  1750   39 37  210/  2/  2 1016.3R   2/ 4
DEVILS ISLAND    1800   41     100/ 10/ 10 1016.3R
SAXON HARBOR     1740   41      50/  8/ 10 1015.6R
$$

LMZ867-665-643>646-041900-
LAKE MICHIGAN

STATION/POSITION TIME  TEMP    WIND        PRES    WAVE
                       AIR SEA DIR/SP/G            HT/PER
                 (UTC) (F)     (DEG/KT/KT) (MB)    (FT/S)
CHAMBERS ISLAND  1700   44     330/ 17/ 20 1009.8R
N MID LAKE BUOY  1750   40 39  320/ 17/ 21 1008.6R   3/ 5
NORTHPORT PIER   1803   41     340/ 21     1009.8R
ALGOMA LAKESHORE C1F1C2F2C3F3C4F4C5F5C6F6C7F7C8M1C9M2Ca!



USA.gov is the U.S. government's official web portal to all federal, state and local government web resources and services.